Regional Weather Roundup
Issued by NWS

Home | Current Version | Previous Version | Graphics & Text | Print | Product List | Glossary On
Versions: 1 2 3 4 5 6 7 8 9 10 11 12 13 14 15 16 17 18 19 20 21 22 23 24 25 26 27 28 29 30 31 32 33 34 35 36 37 38 39 40 41 42 43 44 45 46 47 48 49 50
000
ASUS43 KMKX 270511
RWRWI

WISCONSIN REGIONAL WEATHER ROUNDUP
NATIONAL WEATHER SERVICE MILWAUKEE/SULLIVAN WI
1100 PM CST WED NOV 26 2014

NOTE: "FAIR" INDICATES FEW OR NO CLOUDS BELOW 12,000 FEET WITH NO
SIGNIFICANT WEATHER AND/OR OBSTRUCTIONS TO VISIBILITY.

WIZ001-002-006>008-014>016-023>028-270600-
NORTHWEST WISCONSIN

CITY           SKY/WX    TMP DP  RH WIND       PRES   REMARKS
SUPERIOR ARPT  CLEAR      3  -3  74 N7        30.43R WCI  -9
ASHLAND        LGT SNOW  13   8  81 NW7       30.35R WCI   3
HAYWARD        PTCLDY     9   3  77 N9        30.32R WCI  -4
SIREN          PTCLDY     8  -2  61 N12       30.38R WCI  -7
CUMBERLAND     CLOUDY    12   5  73 N16       30.31R WCI  -4
RICE LAKE      CLOUDY    15   8  74 N7        30.33R WCI   5
CHETEK         CLOUDY    16  10  79 NW8       30.31R WCI   5
LADYSMITH      CLOUDY    17  11  80 NW14      30.28R WCI   2
EAU CLAIRE     FLURRIES  19  11  70 N10       30.29R WCI   7
MENOMONIE      CLOUDY    19  13  77 N8        30.31R WCI   9
NEW RICHMOND   CLOUDY    14   5  68 N13       30.35R WCI   0
OSCEOLA        PTCLDY    13   1  59 NW10      30.40R WCI   0
$$

WIZ003>005-009-010-017-018-270600-
NORTH CENTRAL WISCONSIN

CITY           SKY/WX    TMP DP  RH WIND       PRES   REMARKS
MANITOWISH WTR LGT SNOW  16  13  89 N6        30.20R WCI   7
ARBOR VITAE    PTCLDY    17  14  88 N5        30.19R WCI  10
WOODRUFF       PTCLDY    17  14  88 N5        30.19R WCI  10
RHINELANDER    CLOUDY    17  13  84 N7        30.17R WCI   8
EAGLE RIVER    LGT SNOW  16  11  82 N6        30.17R WCI   7
LAND O LAKES   FLURRIES  16  13  88 N6        30.18R WCI   7
PHILLIPS       LGT SNOW  15  11  86 N7        30.22R WCI   5
TOMAHAWK       LGT SNOW  18  15  88 CALM      30.20R
MEDFORD        FLURRIES  18  14  85 NW9       30.20S WCI   6
MERRILL        FLURRIES  20  15  82 NW6       30.19R WCI  12
$$

WIZ029-030-035-036-043>047-270600-
CENTRAL WISCONSIN

CITY           SKY/WX    TMP DP  RH WIND       PRES   REMARKS
WAUSAU         CLOUDY    21  15  78 NW8       30.18R WCI  11
MOSINEE        CLOUDY    21  19  93 NW12      30.21R WCI   9
MARSHFIELD     CLOUDY    21  15  78 N16       30.21R WCI   7
STEVENS POINT  CLOUDY    20  17  87 NW7       30.21R WCI  11
WAUPACA        CLOUDY    25  22  89 W5        30.20R WCI  19
WAUTOMA        MIX PCPN  23  21  92 NW8       30.21R FOG     WCI  14
WISC RAPIDS    CLOUDY    22  18  85 NW8       30.23R WCI  12
CAMP DOUGLAS   CLOUDY    23  23 100 NW10      30.23R WCI  12
$$

WIZ011>013-019>022-031-037>040-048>050-270600-
NORTHEAST WISCONSIN

CITY           SKY/WX    TMP DP  RH WIND       PRES   REMARKS
ANTIGO         CLOUDY    19  16  87 NW10      30.16R WCI   8
SHAWANO        CLOUDY    24  21  87 W3        30.20R
OCONTO         CLOUDY    22  20  92 CALM      30.18R
STURGEON BAY   CLOUDY    25  19  80 NW10      30.16S WCI  15
GREEN BAY      LGT SNOW  22  19  89 W6        30.19R FOG     WCI  14
MANITOWOC      CLOUDY    19  18  95 W3        30.19R
APPLETON       LGT SNOW  19  19 100 W7        30.18R WCI  10
CLINTONVILLE   CLOUDY    23  21  93 W3        30.19R
OSHKOSH        MOCLDY    19  16  88 MISG      30.19R FOG
$$

WIZ032>034-041-042-053>061-270600-
SOUTHWEST WISCONSIN

CITY           SKY/WX    TMP DP  RH WIND       PRES   REMARKS
LA CROSSE      CLOUDY    26  19  74 NW14      30.28R WCI  14
SPARTA         MOCLDY    24  20  85 NW9       30.27R WCI  14
VIROQUA        CLOUDY    22  22 100 NW9       30.23R WCI  12
BOSCOBEL       CLOUDY    21  18  88 CALM      30.27R FOG
PRAIRIE DU CHI CLOUDY    25  20  81 NW5       30.27S WCI  20
PLATTEVILLE    PTCLDY    22  20  93 CALM      30.24R
$$

WIZ056-057-062-063-064-067-068-270600-
SOUTH CENTRAL WISCONSIN

CITY           SKY/WX    TMP DP  RH WIND       PRES   REMARKS
REEDSBURG      LGT SNOW  20  19  94 NW5       30.22R WCI  13
BARABOO/DELLS  LGT SNOW  20  19  95 W6        30.21R WCI  13
LONE ROCK      LGT SNOW  22  16  78 W7        30.25R WCI  13
MINERAL POINT  LGT SNOW  23  21  93 NW5       30.21R WCI  17
MADISON        CLOUDY    16  13  88 CALM      30.21R
MIDDLETON      CLOUDY    15  12  90 CALM      30.22R
WATERTOWN      FAIR      13  11  95 CALM      30.20R FOG
MONROE         PTCLDY    19  18  93 NW7       30.21R FOG     WCI  10
JANESVILLE     PTCLDY    16  14  93 CALM      30.21S FOG
$$

WIZ051-052-058>065-066-070>072-270600-
SOUTHEAST WISCONSIN

CITY           SKY/WX    TMP DP  RH WIND       PRES   REMARKS
MILWAUKEE      PTCLDY    23  17  78 NW9       30.18S WCI  13
WAUKESHA       PTCLDY    18  18 100 NW6       30.19R FOG     WCI   9
MILWAUKEE/TIMM PTCLDY    21  16  79 NW8       30.20R HAZE    WCI  12
RACINE         CLOUDY    26  19  74 NW9       30.19R WCI  17
BURLINGTON     PTCLDY    17  15  90 NW6       30.19R WCI   9
KENOSHA        CLOUDY    25  20  81 NW12      30.17R HAZE    WCI  14
FOND DU LAC    LGT SNOW  18  15  88 CALM      30.20R FOG
SHEBOYGAN      PTCLDY    19  16  88 W7        30.18S FOG     WCI  10
WEST BEND      PTCLDY    19  16  86 CALM      30.19R FOG
JUNEAU           N/A     14  13  95 W3        30.21R FOG
$$

LSZ147-162-270600-
LAKE SUPERIOR

STATION/POSITION TIME  TEMP    WIND        PRES    WAVE
                       AIR SEA DIR/SP/G            HT/PER
                 (UTC) (F)     (DEG/KT/KT) (MB)    (FT/S)
DEVILS ISLAND    0500   12     340/ 19/ 22 1029.7R
PORT WING        0440   12     330/ 14/ 18 1029.1R
SAXON HARBOR     0400   20     350/ 16/ 20 1025.7R
$$

LMZ867-665-643>646-270600-
LAKE MICHIGAN

STATION/POSITION TIME  TEMP    WIND        PRES    WAVE
                       AIR SEA DIR/SP/G            HT/PER
                 (UTC) (F)     (DEG/KT/KT) (MB)    (FT/S)
CHAMBERS ISLAND  0400   26     300/ 11/ 14 1021.3S
N MID LAKE BUOY  0450   28 42  330/  8/ 10 1021.7R   1/ 3
NORTHPORT PIER   0503   28     330/ 12/ 15 1021.0S
KEWAUNEE LAKESHO 0400   20     300/  2/  6 1020.9R
SHEBOYGAN LAKESH 0500   21 36  280/  9/ 11 1023.4R
PORT WASHINGTON  0400   21     310/ 11/ 16 1022.7R
MILWAUKEE LAKESH 0400   24     300/ 12/ 16   N/A
S MID LAKE BUOY  0450   32 42  330/  6/ 14 1021.7S   1/ 4
KENOSHA   LAKESH 0500   27     310/ 11/ 14 1021.7R
$$

TC  - TEMPERATURE IN CELSIUS
VSB - VISIBILITY IN STATUTE MILES
WCI - WIND CHILL INDEX
HX  - HEAT INDEX




USA.gov is the U.S. government's official web portal to all federal, state and local government web resources and services.